Wind_Speed
6 6 6 6 7 7 8 8 8 9 9 10 11 11 11 11 11 11 11 11 11 11 11 11 11 11 11 11 10 10 10 9 9 9 9 9 9 8 8 7 8 8 8
8 7 8 8 9 9 9 10 10 10 11 11 12 12 12 12 12 12 12 12 12 12 12 13 12 12 12 12 11 11 10 10 10 10 10 10 9 9 9 8 9 9 8
9 9 9 9 10 10 11 11 12 12 12 12 14 13 13 14 13 13 13 13 13 14 13 14 13 13 13 12 12 12 12 11 11 11 11 10 10 10 10 9 9 10 10
9 10 10 10 11 11 11 12 12 13 13 13 14 15 15 15 15 15 14 15 15 15 15 15 14 14 14 13 13 13 13 13 13 12 11 12 12 12 11 10 10 11 12
10 10 11 11 12 13 13 13 13 14 14 14 15 16 16 16 17 16 16 16 16 16 16 16 16 15 15 14 14 14 14 14 13 13 13 13 13 12 12 11 11 12 13
11 12 13 13 14 14 14 14 14 14 15 15 15 16 17 17 17 17 17 16 16 16 16 17 17 16 16 16 15 16 15 15 14 14 14 15 14 13 14 13 13 13 14
12 12 13 13 14 15 15 14 15 15 15 16 16 17 18 17 18 18 17 17 17 17 17 18 18 18 18 17 17 17 17 17 16 16 16 15 15 15 15 16 15 15 16
13 13 13 13 14 15 15 14 14 14 15 16 17 18 18 18 18 18 18 17 18 18 18 19 19 19 19 19 19 19 18 18 18 17 17 17 17 17 17 17 17 17 17
13 13 14 15 15 15 16 16 17 17 17 17 18 18 18 18 18 18 18 18 18 19 20 20 20 20 21 20 20 20 19 19 18 18 18 18 18 18 19 19 19 20 19
13 14 15 16 16 15 16 16 17 17 18 18 19 19 19 19 19 18 18 19 19 19 19 20 20 21 22 22 21 21 21 20 20 19 19 19 20 20 20 20 21 21 21
14 14 14 15 16 16 17 17 16 17 18 19 19 20 20 20 19 19 19 19 19 19 19 20 20 21 22 22 22 21 21 21 21 21 21 21 21 22 22 22 22 23 23
14 14 14 15 16 16 17 17 17 18 18 19 19 19 19 19 19 19 20 20 20 19 19 20 20 20 21 21 21 21 22 22 22 23 23 23 23 23 23 23 23 22 23
14 14 14 16 16 17 17 18 18 18 18 18 19 19 19 19 19 18 19 20 19 19 19 19 19 20 20 21 21 21 22 22 22 23 23 24 25 24 24 23 23 23 23
14 15 15 15 16 17 18 19 18 18 18 18 18 18 18 19 19 19 19 19 19 19 18 18 19 19 20 21 21 21 22 22 22 23 24 24 24 25 25 25 25 25 24
16 15 15 15 16 17 19 19 17 17 17 17 17 18 19 19 19 19 20 19 19 19 19 19 19 19 20 21 21 21 21 21 23 23 24 24 25 25 26 26 26 26 26
15 15 15 15 17 18 17 16 17 18 18 18 18 19 19 19 19 19 18 18 18 19 20 20 19 19 20 20 21 21 21 21 23 24 24 25 26 27 27 27 27 27 27
15 15 16 17 18 16 17 17 17 17 18 19 19 20 20 20 20 19 18 17 18 18 19 19 20 20 20 21 21 21 21 22 22 23 24 24 25 26 26 27 27 27 27
15 16 16 17 17 16 16 16 16 17 18 18 18 20 20 19 20 19 18 18 19 20 20 20 20 20 20 21 21 21 22 23 23 23 23 23 23 24 25 26 27 28 28
15 16 16 17 17 17 17 17 17 17 17 17 18 18 18 18 18 18 19 19 19 20 20 20 20 20 20 20 20 21 21 22 22 22 22 22 22 23 25 26 27 28 28
15 15 16 16 16 16 17 18 18 17 17 17 17 16 16 16 16 17 18 18 19 19 20 20 19 19 20 20 20 21 21 21 21 21 22 22 23 23 24 25 26 27 28
15 15 15 15 15 16 17 18 17 16 16 16 16 15 14 14 15 16 17 17 18 19 19 19 19 19 19 19 20 21 21 21 21 21 21 22 23 23 24 24 25 26 27
15 16 16 16 15 15 15 16 16 15 15 16 15 14 13 13 14 16 18 18 18 19 19 18 18 19 20 20 20 21 21 21 22 22 22 22 23 24 24 25 25 26 27
15 15 15 16 17 16 16 16 16 16 15 15 14 14 13 13 14 15 17 16 17 18 17 17 18 19 19 20 20 21 21 21 21 22 23 23 24 24 25 25 25 26 26
15 15 15 15 15 16 16 16 16 16 16 15 14 13 13 13 14 15 15 16 16 17 17 17 18 18 19 19 19 19 20 21 22 22 22 24 25 26 26 26 26 26 26
14 15 14 15 15 15 15 16 15 15 14 14 13 13 13 14 14 15 15 14 14 15 16 17 17 18 19 19 19 20 20 21 22 23 23 24 25 26 26 27 27 27 27
13 13 13 14 14 14 15 15 14 15 14 14 13 13 13 13 14 14 14 13 13 14 15 16 18 19 20 20 20 21 22 22 23 23 24 24 24 25 26 26 26 27 27
Wind_Direction
308 302 311 309 309 302 299 296 288 283 281 280 278 276 275 276 278 277 277 277 279 276 273 275 273 273 270 268 268 267 265 264 260 258 259 258 259 255 246 239 236 234 230
307 305 306 305 303 298 293 290 285 282 280 279 278 275 274 275 276 276 274 274 277 277 275 274 274 274 273 270 268 266 265 262 261 256 255 254 255 254 250 244 240 240 237
297 298 296 295 296 294 288 284 281 279 279 276 275 275 275 276 275 276 276 275 276 276 275 273 272 271 270 267 265 263 263 263 264 262 261 258 257 255 252 250 243 244 244
290 295 294 294 293 292 289 284 280 277 277 276 274 275 274 275 276 276 276 275 276 275 274 272 269 267 266 265 263 263 263 263 265 265 265 263 259 257 252 249 247 245 244
290 292 293 299 297 293 290 287 281 278 276 278 277 275 274 276 276 275 275 276 276 275 274 273 270 267 266 264 263 263 263 265 265 265 263 263 260 258 253 253 253 249 246
288 286 290 294 294 293 290 286 282 279 276 277 277 275 276 277 277 277 276 275 275 273 273 272 271 269 266 263 263 262 263 264 264 263 263 264 261 260 257 257 253 250 248
285 283 288 291 292 291 289 285 281 279 277 276 278 278 277 277 278 278 276 276 275 272 271 271 271 269 267 265 262 261 261 261 261 261 261 262 262 261 259 258 255 252 251
288 285 285 287 288 287 288 287 281 279 279 279 281 282 279 276 277 277 276 276 275 274 273 271 270 269 270 268 265 262 260 259 259 260 261 260 260 261 259 258 257 256 254
287 288 284 285 286 287 287 286 285 281 281 282 282 281 279 276 275 275 276 275 274 275 273 270 270 270 269 270 267 263 260 259 257 259 260 260 260 261 260 259 258 257 256
287 290 285 285 286 289 286 285 286 285 283 282 281 281 280 278 276 274 275 275 275 275 273 269 269 271 270 268 267 266 264 260 259 260 260 260 261 260 261 260 259 258 257
291 290 292 290 291 290 290 287 288 287 283 281 281 280 280 278 276 274 275 275 275 274 272 271 270 269 268 267 267 267 264 262 262 262 260 260 259 260 261 262 261 258 256
290 293 296 294 293 293 292 287 287 287 285 283 281 281 278 276 275 274 274 274 273 272 270 269 268 267 267 268 267 267 265 264 266 265 263 261 261 260 261 262 262 260 257
292 295 294 296 293 293 294 292 288 286 286 285 282 281 279 276 273 272 274 274 272 271 269 268 265 266 267 268 268 270 267 265 266 265 264 264 262 262 261 261 261 260 258
298 296 295 296 294 294 293 293 292 289 287 284 283 280 279 277 275 273 270 272 272 270 269 271 270 267 269 270 270 270 269 267 266 266 263 264 264 264 262 260 261 259 258
297 299 298 294 293 294 293 293 292 291 289 286 284 282 279 279 277 275 271 269 268 269 271 273 268 268 269 270 270 270 269 269 268 270 268 265 265 268 266 262 259 259 258
299 300 298 297 295 295 294 294 292 290 290 289 287 283 281 279 277 275 271 272 269 267 269 271 271 271 271 271 271 270 271 271 271 271 271 268 267 266 265 263 259 258 257
301 301 298 298 297 295 294 291 291 291 291 291 289 286 283 281 279 274 272 273 273 273 271 271 272 272 273 272 272 272 273 273 272 271 270 270 268 265 262 260 259 257 256
305 303 299 299 299 298 299 297 296 295 296 295 293 288 284 282 278 275 273 274 274 273 273 274 274 273 273 272 272 273 274 274 273 271 270 270 268 266 264 261 259 257 257
306 303 299 299 301 301 301 301 300 299 301 302 298 293 288 283 278 276 275 274 274 274 275 275 273 273 274 272 273 275 275 274 272 272 270 268 268 267 267 263 260 259 258
305 304 302 302 303 301 302 305 302 301 302 303 302 297 291 283 278 276 276 275 275 275 275 276 275 274 273 273 274 275 274 273 272 270 268 268 267 268 269 266 263 261 260
306 307 308 309 306 305 305 307 304 303 303 304 303 300 295 286 278 274 276 277 277 279 278 277 277 276 276 276 275 275 275 274 273 271 269 268 266 266 269 269 265 263 262
311 312 312 312 313 315 311 310 309 306 304 306 306 301 298 291 282 277 279 280 279 279 278 277 278 278 278 279 278 276 275 273 271 270 270 267 265 266 266 267 264 262 261
312 310 314 317 317 318 318 318 315 310 307 308 305 301 301 297 291 287 288 285 281 280 278 279 281 280 280 281 281 279 277 277 274 271 270 268 267 268 267 266 265 263 262
316 313 315 316 316 318 319 320 320 315 312 310 304 302 300 298 293 289 288 286 283 282 283 283 283 282 282 284 285 283 283 281 278 275 273 271 270 269 267 268 265 264 264
318 315 315 316 315 317 320 319 319 319 318 316 311 307 302 298 293 290 288 285 284 285 288 287 288 287 286 287 286 285 286 284 283 280 276 274 272 271 271 269 267 264 263
319 318 321 319 318 318 320 324 323 320 318 317 316 312 308 305 303 298 292 288 287 287 290 291 291 292 291 290 288 287 287 286 285 282 279 277 275 274 273 270 269 266 263
Height
5891 5891 5891 5891 5891 5891 5890 5890 5890 5889 5889 5889 5888 5888 5887 5887 5887 5886 5886 5886 5885 5885 5884 5884 5883 5883 5883 5883 5883 5882 5882 5882 5881 5881 5881 5881 5880 5880 5880 5880 5880 5881 5882
5890 5890 5889 5889 5889 5889 5889 5888 5888 5888 5888 5887 5887 5886 5886 5885 5885 5885 5884 5884 5883 5883 5883 5882 5882 5882 5881 5881 5881 5880 5880 5880 5880 5879 5879 5879 5879 5879 5879 5879 5879 5879 5879
5889 5889 5888 5887 5887 5887 5887 5887 5887 5886 5886 5885 5885 5884 5884 5883 5883 5883 5882 5882 5881 5881 5880 5880 5880 5879 5879 5879 5879 5878 5878 5878 5878 5878 5878 5878 5877 5877 5877 5877 5877 5877 5877
5887 5887 5886 5886 5885 5885 5885 5885 5884 5884 5883 5883 5882 5882 5882 5881 5881 5880 5880 5879 5879 5879 5878 5878 5877 5877 5877 5876 5876 5876 5876 5875 5875 5875 5875 5875 5875 5875 5875 5875 5875 5875 5875
5886 5885 5884 5884 5883 5883 5883 5882 5882 5881 5881 5881 5880 5880 5879 5879 5878 5878 5877 5877 5876 5876 5876 5875 5875 5874 5874 5874 5874 5873 5873 5873 5873 5873 5873 5872 5872 5872 5872 5872 5873 5873 5873
5883 5883 5883 5882 5882 5881 5881 5880 5879 5879 5878 5878 5877 5877 5877 5876 5876 5875 5874 5874 5873 5873 5873 5872 5871 5871 5871 5871 5871 5871 5870 5870 5870 5870 5870 5869 5869 5870 5870 5869 5870 5870 5870
5881 5881 5881 5880 5879 5879 5878 5877 5876 5876 5875 5875 5874 5874 5873 5873 5872 5872 5871 5871 5870 5870 5869 5869 5868 5868 5868 5867 5867 5867 5867 5867 5867 5867 5867 5866 5866 5866 5866 5866 5866 5867 5867
5879 5879 5878 5877 5876 5876 5875 5874 5873 5873 5872 5872 5871 5870 5870 5869 5868 5868 5867 5867 5867 5866 5866 5865 5865 5864 5864 5864 5863 5863 5864 5864 5864 5863 5863 5863 5863 5863 5863 5863 5863 5863 5864
5876 5875 5875 5874 5873 5873 5872 5871 5871 5870 5869 5868 5867 5866 5866 5865 5865 5864 5863 5863 5862 5862 5862 5861 5861 5861 5860 5860 5859 5859 5859 5859 5859 5859 5859 5859 5860 5860 5859 5859 5859 5859 5860
5872 5872 5872 5871 5870 5870 5869 5868 5867 5866 5865 5864 5863 5862 5862 5861 5860 5860 5859 5859 5858 5858 5857 5857 5856 5856 5856 5855 5855 5855 5855 5855 5855 5855 5855 5856 5856 5855 5855 5855 5855 5855 5855
5869 5869 5868 5867 5867 5867 5866 5865 5863 5862 5861 5860 5859 5858 5857 5857 5856 5855 5855 5854 5854 5853 5852 5852 5852 5851 5851 5850 5850 5850 5850 5851 5851 5850 5850 5851 5851 5851 5850 5850 5850 5850 5850
5866 5865 5864 5864 5863 5863 5862 5861 5859 5858 5857 5855 5854 5853 5852 5852 5851 5850 5850 5849 5849 5848 5847 5847 5847 5846 5846 5846 5845 5845 5845 5845 5846 5845 5845 5845 5845 5845 5845 5845 5845 5845 5845
5863 5862 5861 5860 5860 5859 5858 5856 5855 5854 5852 5851 5849 5848 5847 5846 5846 5845 5845 5844 5843 5843 5842 5842 5841 5841 5841 5841 5840 5840 5840 5840 5839 5839 5840 5840 5840 5839 5840 5840 5840 5840 5840
5859 5859 5858 5857 5856 5855 5853 5852 5850 5849 5847 5846 5844 5843 5842 5842 5841 5840 5840 5839 5838 5837 5837 5837 5836 5836 5836 5835 5835 5835 5834 5834 5833 5833 5833 5834 5834 5834 5834 5834 5834 5834 5835
5856 5855 5853 5852 5851 5850 5848 5847 5846 5844 5842 5841 5840 5839 5838 5837 5836 5835 5834 5833 5833 5832 5832 5832 5831 5830 5830 5829 5829 5829 5828 5827 5827 5827 5827 5827 5827 5827 5827 5828 5828 5828 5829
5853 5851 5850 5848 5846 5845 5843 5842 5841 5839 5838 5836 5834 5833 5832 5831 5830 5829 5828 5828 5827 5827 5827 5826 5825 5825 5824 5824 5823 5823 5822 5821 5821 5821 5821 5821 5821 5821 5821 5821 5821 5821 5822
5850 5848 5846 5844 5842 5840 5839 5837 5836 5835 5833 5831 5829 5827 5826 5825 5824 5824 5823 5823 5822 5822 5821 5820 5820 5819 5819 5818 5817 5817 5816 5815 5815 5815 5814 5814 5814 5814 5813 5814 5814 5814 5815
5846 5845 5843 5841 5838 5836 5834 5833 5831 5829 5827 5825 5823 5821 5820 5819 5818 5818 5818 5817 5817 5816 5815 5814 5814 5813 5813 5812 5811 5810 5809 5809 5808 5808 5808 5808 5807 5807 5807 5807 5807 5808 5808
5843 5842 5840 5837 5834 5832 5830 5829 5826 5824 5822 5820 5817 5815 5813 5812 5812 5812 5812 5812 5811 5811 5810 5809 5808 5807 5807 5806 5805 5804 5803 5802 5801 5801 5801 5801 5801 5801 5801 5800 5800 5801 5801
5840 5838 5836 5834 5831 5829 5826 5824 5821 5819 5817 5815 5812 5809 5807 5806 5807 5807 5807 5806 5805 5805 5804 5803 5802 5801 5801 5800 5799 5798 5797 5796 5795 5794 5794 5795 5795 5794 5794 5794 5794 5794 5794
5837 5834 5832 5829 5827 5825 5822 5820 5817 5815 5813 5810 5808 5805 5803 5802 5802 5802 5801 5800 5800 5799 5798 5797 5797 5796 5795 5794 5793 5792 5791 5790 5789 5788 5788 5788 5788 5787 5787 5787 5786 5787 5787
5833 5831 5829 5826 5823 5821 5818 5816 5813 5811 5809 5806 5804 5802 5800 5798 5797 5797 5796 5795 5795 5794 5793 5792 5791 5790 5789 5788 5787 5786 5785 5785 5783 5782 5781 5781 5781 5780 5780 5779 5779 5779 5780
5830 5828 5826 5823 5820 5818 5815 5812 5809 5807 5804 5802 5800 5798 5796 5795 5794 5792 5791 5790 5789 5789 5788 5787 5786 5785 5784 5782 5781 5780 5778 5778 5777 5776 5775 5774 5774 5773 5772 5772 5772 5772 5772
5827 5825 5823 5821 5818 5815 5812 5809 5806 5804 5801 5799 5796 5795 5793 5791 5790 5789 5788 5786 5785 5784 5783 5782 5781 5780 5778 5776 5774 5773 5772 5771 5770 5769 5769 5768 5767 5766 5765 5765 5764 5764 5765
5824 5822 5820 5818 5815 5812 5809 5806 5803 5801 5798 5795 5793 5791 5789 5788 5786 5785 5783 5782 5781 5780 5779 5777 5776 5774 5773 5771 5769 5767 5766 5764 5763 5762 5762 5761 5760 5759 5758 5757 5757 5757 5757
5822 5819 5817 5815 5813 5810 5807 5804 5801 5798 5795 5792 5790 5788 5786 5784 5782 5780 5779 5778 5777 5776 5775 5773 5771 5769 5767 5765 5763 5762 5760 5758 5757 5755 5754 5754 5753 5752 5751 5750 5750 5749 5749